Effective Sunday, March 17, 2024, the National Weather Service National Data Buoy Center will discontinue its Dial-A-Buoy Interactive Voice Response system. For more information, see Service Change Notice 24-06 (PDF).

Station 44258 - Halifax Harbour Image indicating link to RSS feed of recent meteorological observations for station 44258

Data from this station are not quality controlled by NDBC


Conditions at 44258 as of
(7:00 am AST)
1100 GMT on 02/26/2024:
     

Click on the graph icon in the table below to see a time series plot of the last five days of that observation.

5-day plot - Wind Direction Wind Direction (WDIR):SSW ( 210 deg true )
5-day plot - Wind Speed Wind Speed (WSPD):0.0 m/s
5-day plot - Wind Gust Wind Gust (GST):1.0 m/s
5-day plot - Wave Height Wave Height (WVHT): 1.3 m
5-day plot - Dominant Wave Period Dominant Wave Period (DPD): 10 sec
5-day plot - Atmospheric Pressure Atmospheric Pressure (PRES):1019.7 mb
5-day plot - Pressure Tendency Pressure Tendency (PTDY): -0.2 mb ( Falling )
5-day plot - Air Temperature Air Temperature (ATMP): -2.9 °C
5-day plot - Water Temperature Water Temperature (WTMP): 0.5 °C
5-day plot - Ice Accretion Ice Accretion (ICE): 0.0 cm per hour
5-day plot -  Wind Speed, Wind Gust and Atmospheric Pressure Combined plot of Wind Speed, Gust, and Air Pressure

Data from this station are not quality controlled by NDBC

Previous observations
TIME
(AST)
5-day plot - Wind Direction
WDIR
 
5-day plot - Wind Speed
WSPD
m/s
5-day plot - Wind Gust
GST
m/s
5-day plot - Wave Height
WVHT
m
5-day plot - Dominant Wave Period
DPD
sec
5-day plot - Average Wave Period
APD
sec
5-day plot - Mean Wave Direction
MWD
 
5-day plot - Atmospheric Pressure
PRES
mb
5-day plot - Pressure Tendency
PTDY
mb
5-day plot - Air Temperature
ATMP
°C
5-day plot - Water Temperature
WTMP
°C
5-day plot - Dew Point
DEWP
°C
5-day plot - Salinity
SAL
psu
5-day plot - Visibility
VIS
km
5-day plot - Tide (above MLLW)
TIDE
m
2024-02-26 06:00 amWSW 5.0 20.0 1.4 10--1019.9 +0.3 -3.1 0.6----
2024-02-26 05:00 amWSW 8.0 24.0 1.2 9--1020.0 +0.3 -3.4 0.6----
2024-02-26 04:00 amWSW 13.0 26.0 1.7 10--1019.9 +0.2 -3.2 0.6----
2024-02-26 03:00 am W 11.0 27.0 1.7 11--1019.6 -0.1 -2.5 0.6----
2024-02-26 02:00 am W 11.0 25.0 1.6 10--1019.7 +0.0 -1.7 0.6----
2024-02-26 01:00 am S 13.0 26.0 1.5 10--1019.7 -0.1 -0.6 0.6----
2024-02-26 12:00 amSSW 15.0 22.0 1.8 10--1019.7 +0.5 -1.0 0.6----
2024-02-25 11:00 pmSSW 14.0 23.0 1.9 10--1019.7 +0.5 -1.5 0.7----
2024-02-25 10:00 pmSSW 15.0 23.0 1.7 10--1019.8 +0.9 -1.6 0.7----
2024-02-25 09:00 pmSSW 15.0 23.0 1.8 11--1019.2 +0.5 -1.8 0.7----
2024-02-25 08:00 pm S 14.0 21.0 2.0 11--1019.2 +1.0 -1.9 0.7----
2024-02-25 07:00 pm S 14.0 23.0 1.8 11--1018.9 +1.0 -1.7 0.7----
2024-02-25 06:00 pm SW 7.0 19.0 2.0 11--1018.7 +1.2 -1.2 0.8----
2024-02-25 05:00 pm S 5.0 20.0 2.4 11--1018.2 +1.2 -1.6 0.8----
2024-02-25 04:00 pmSSE 2.0 9.0 2.2 11--1017.9 +0.8 -2.0 0.9----
2024-02-25 03:00 pmWNW 0.0 3.0 2.3 11--1017.5 +0.3 -2.0 0.8----
2024-02-25 02:00 pm NW 6.0 17.0 2.3 11--1017.0 -0.3 -3.0 0.8----
2024-02-25 01:00 pmWNW 10.0 19.0 2.5 11--1017.1 -0.1 -3.5 0.7----
2024-02-25 12:00 pm W 8.0 17.0 2.4 11--1017.2 +0.7 -4.5 0.7----
2024-02-25 11:00 am W 6.0 15.0 2.5 11--1017.3 +1.7 -5.9 0.7----
2024-02-25 10:00 am W 6.0 14.0 2.3 11--1017.2 +2.9 -6.9 0.7----
2024-02-25 09:00 am W 8.0 15.0 2.7 11--1016.5 +3.2 -7.5 0.6----
2024-02-25 08:00 am W 8.0 12.0 3.3 12--1015.6 +2.8 -7.7 0.6----
2024-02-25 07:00 amWSW 10.0 13.0 2.7 11--1014.3 +2.6 -7.9 0.6----